Location: Columbia
(38.9520°N, 92.3340°W)
Time: 08:51:57
(UTC-05:00)

Iridium 22 - Visible Passes

Search period start: 27 May 2015 00:00
Search period end: 06 June 2015 00:00
Orbit: 776 x 779 km, 86.4° (Epoch: 26 May)

Date Brightness Start Highest point End Pass type
(mag) Time Alt. Az. Time Alt. Az. Time Alt. Az.
27 May 8.0 00:36:26 10° W 00:38:16 11° WNW 00:39:45 10° NW visible
27 May 6.1 22:21:53 33° ESE 22:23:20 40° E 22:28:13 10° NNE visible
28 May 7.4 00:02:20 18° WSW 00:04:17 21° WNW 00:08:11 10° NNW visible
28 May 6.9 21:48:07 18° ESE 21:49:59 22° E 21:53:59 10° NNE visible
28 May 6.6 23:28:34 29° SW 23:30:30 39° W 23:35:22 10° NNW visible
29 May 7.5 21:15:16 10° E 21:16:44 11° ENE 21:18:32 10° ENE visible
29 May 5.6 22:54:48 37° SSW 22:56:53 74° W 23:02:06 10° N visible
30 May 5.6 22:21:01 31° SSE 22:23:22 59° E 22:28:31 10° N visible
31 May 8.0 00:01:37 10° WSW 00:04:38 15° WNW 00:07:25 10° NW visible
31 May 6.4 21:47:12 19° SE 21:49:58 31° E 21:54:34 10° NNE visible
31 May 7.2 23:27:38 16° SW 23:30:44 27° W 23:35:06 10° NNW visible
01 Jun 7.1 21:13:29 10° ESE 21:16:40 17° E 21:20:04 10° NE visible
01 Jun 6.2 22:53:49 22° SSW 22:57:00 50° W 23:02:05 10° N visible
02 Jun 5.4 22:19:57 22° S 22:23:26 86° E 22:28:41 10° N visible
03 Jun 5.9 21:46:05 16° SSE 21:49:59 45° E 21:54:58 10° NNE visible
03 Jun 7.8 23:27:18 10° WSW 23:31:02 19° WNW 23:34:36 10° NNW visible
04 Jun 6.7 21:12:32 10° SE 21:16:37 25° E 21:20:51 10° NNE visible
04 Jun 6.9 22:52:36 11° SW 22:57:12 34° W 23:01:56 10° NNW visible
05 Jun 5.9 22:18:40 12° SSW 22:23:33 65° W 22:28:45 10° N visible
